Regional Weather Roundup
Issued by NWS

Home | Current Version | Previous Version | Graphics & Text | Print | Product List | Glossary On
Versions: 1 2 3 4 5 6 7 8 9 10 11 12 13 14 15 16 17 18 19 20 21 22 23 24 25 26 27 28 29 30 31 32 33 34 35 36 37 38 39 40 41 42 43 44 45 46 47 48 49 50
000
ASUS45 KCYS 282310
RWRWY

WYOMING REGIONAL WEATHER ROUNDUP
NATIONAL WEATHER SERVICE CHEYENNE WY
500 PM MDT TUE JUL 28 2015

NOTE:  "FAIR" INDICATES FEW OR NO CLOUDS BELOW 12,000 FEET
WITH NO SIGNIFICANT WEATHER AND/OR OBSTRUCTIONS TO VISIBILITY.

WYZ001-290000-
YELLOWSTONE NATIONAL PARK

CITY           SKY/WX    TMP DP  RH WIND       PRES   REMARKS
LK YELLOWSTONE   N/A     53  29  39 VRB7      30.42S
W YELLOWSTONE  NOT AVBL

$$
WYZ002>013-054>058-071-098>099-290000-
NORTHERN WYOMING

CITY           SKY/WX    TMP DP  RH WIND       PRES   REMARKS
JACKSON        FAIR      63  30  29 NW12      30.34S
CODY           FAIR      68  30  24 W14G23    30.21S
GREYBULL       FAIR      76  31  19 N9        30.15S
WORLAND        FAIR      75  28  17 N6        30.16S
SHERIDAN       FAIR      74  37  26 N25G35    30.14R
BUFFALO        FAIR      70  35  27 N16       30.19R
GILLETTE       FAIR      71  36  27 NW23G30   30.15R
HULETT         FAIR      70  37  30 NW12G23   30.14R
NEWCASTLE      FAIR      72  32  23 NW18G26   30.14R

$$
WYZ014>020-022>026-101>103-290000-
CENTRAL WYOMING

CITY           SKY/WX    TMP DP  RH WIND       PRES   REMARKS
BIG PINEY      FAIR      68  19  15 N10       30.33S
PINEDALE       FAIR      63  28  27 NW13G18   30.34S
DUBOIS         FAIR      61  27  27 N20G30    30.32S
LANDER         FAIR      75  26  16 VRB6      30.18F
RIVERTON       FAIR      75  15  10 N15G23    30.20R
CASPER         FAIR      76  13   9 NW23      30.18S
DOUGLAS        FAIR      78  17  10 NW20G30   30.16R

$$
WYZ021-027>030-104>119-290000-
SOUTHERN WYOMING

CITY           SKY/WX    TMP DP  RH WIND       PRES   REMARKS
EVANSTON       FAIR      69  15  12 MISG      30.33F
KEMMERER       FAIR      68  19  15 W10G22    30.35F
FORT BRIDGER   CLEAR     73  16  11 NW14G23   30.34F
ROCK SPRINGS   FAIR      71  15  11 W13G24    30.30F
DIXON          FAIR      76  23  13 W10       30.30F
RAWLINS        FAIR      72  12  10 W24G30    30.30S
SARATOGA       FAIR      73  14  10 W18G28    30.33S
LARAMIE        FAIR      75  24  15 W18G30    30.27R
CHEYENNE       PTSUNNY   80  37  21 E9        30.20R
TORRINGTON     FAIR      83  26  12 MISG      30.09R
PINE BLUFFS    FAIR      81  25  12 N13G21    30.17R

$$



USA.gov is the U.S. government's official web portal to all federal, state and local government web resources and services.